Location: Demre
(36.2444°N, 29.9850°E)
Time: 09:21:05
(UTC+00:00)

Cosmos 1842 Rocket - Visible Passes

Search period start: 09 June 2026 00:00
Search period end: 19 June 2026 00:00
Orbit: 599 x 625 km, 82.5° (Epoch: 9 June)

Date Brightness Start Highest point End Pass type
(mag) Time Alt. Az. Time Alt. Az. Time Alt. Az.
9 Jun 3.5 18:59:51 26° S 19:02:19 74° E 19:06:46 10° N visible
10 Jun 4.1 19:14:15 17° SSW 19:17:30 58° W 19:21:53 10° N visible
11 Jun 5.1 17:52:16 10° SE 17:55:18 18° E 17:58:20 10° NE visible
11 Jun 5.2 19:28:47 10° SW 19:32:44 31° WNW 19:36:42 10° NNW visible
12 Jun 4.4 18:06:20 10° SSE 18:10:18 33° E 18:14:16 10° NNE visible
12 Jun 6.1 19:45:02 10° WSW 19:48:04 18° WNW 19:51:06 10° NNW visible
13 Jun 3.6 18:20:59 10° S 18:25:22 62° E 18:29:45 10° NNE visible
14 Jun 3.8 18:36:05 10° SSW 18:40:30 70° W 18:44:56 10° N visible
15 Jun 5.0 18:51:37 10° SSW 18:55:44 37° WNW 18:59:51 10° N visible
16 Jun 6.1 19:07:41 10° SW 19:11:02 21° WNW 19:14:23 10° NNW visible
17 Jun 6.6 19:24:50 10° W 19:26:25 12° WNW 19:27:59 10° NW visible
18 Jun 3.7 17:59:05 10° S 18:03:31 83° W 18:07:57 10° N visible
